Weather History for Pittsburg, KS

Change the Weather History Date:

Friday, April 19, 2013

  Actual Average (KJLN) Record (KJLN)
Temperature  
Mean Temperature 45 °F 60 °F  
Max Temperature 55 °F 71 °F 93 °F (1987)
Min Temperature 35 °F 48 °F 31 °F (1953)
Degree Days  
Heating Degree Days 20 7  
Month to date heating degree days 179  
Since 1 July heating degree days 3941  
Cooling Degree Days 0 2  
Month to date cooling degree days 22  
Year to date cooling degree days 32  
Moisture  
Dew Point 30 °F    
Average Humidity 60    
Maximum Humidity 99    
Minimum Humidity 34    
Precipitation  
Precipitation 0.01 in 0.15 in 1.31 in (1976)
Month to date precipitation 2.54  
Year to date precipitation 10.31  
Sea Level Pressure  
Sea Level Pressure 30.04 in    
Wind  
Wind Speed 7 mph (WNW)    
Max Wind Speed 16 mph    
Max Gust Speed 26 mph    
Visibility 10 miles    
Events      
T = Trace of Precipitation, MM = Missing Value Source: NWS Daily Summary

Daily Weather History Graph

Daily Weather History Graph

Search for Another Location

Airport:

Trip Planner

Search our weather history database for the weather conditions in past years. The results will help you decide how hot, cold, wet, or windy it might be!

Date:

Astronomy

Apr. 19, 2013 Rise Set
Actual Time 6:38 AM CDT 7:58 PM CDT
Civil Twilight 6:11 AM CDT 8:25 PM CDT
Nautical Twilight 5:38 AM CDT 8:58 PM CDT
Astronomical Twilight 5:04 AM CDT 9:32 PM CDT
Moon 1:50 PM CDT (4/19) 2:46 AM CDT (4/19)
Length of Visible Light 14h 14m
Length of Day
13h 19m
First Quarter, 62% of the Moon is Illuminated
Apr 19
First Quarter
Apr 25
Full
May 2
Last Quarter
May 9
New
May 17
First Quarter

Hourly Weather History & Observations

Time (CDT) Temp. Windchill Dew Point Humidity Pressure Visibility Wind Dir Wind Speed Gust Speed Precip Events Conditions
12:15 AM 38.5 °F 33.4 °F 28.6 °F 68% 29.99 in 10.0 mi WNW 6.9 mph - N/A   Overcast
12:35 AM 38.1 °F 32.3 °F 28.6 °F 69% 29.99 in 10.0 mi WNW 8.1 mph - N/A   Overcast
12:55 AM 37.9 °F 32.7 °F 28.9 °F 70% 29.99 in 10.0 mi WNW 6.9 mph 16.1 mph N/A   Overcast
1:15 AM 37.9 °F 32.7 °F 29.1 °F 71% 29.98 in 10.0 mi WNW 6.9 mph - N/A   Mostly Cloudy
1:35 AM 37.9 °F 32.1 °F 29.7 °F 72% 29.99 in 10.0 mi WNW 8.1 mph - N/A   Scattered Clouds
1:55 AM 37.9 °F 33.5 °F 30.0 °F 73% 29.98 in 10.0 mi WNW 5.8 mph - N/A   Mostly Cloudy
2:15 AM 37.9 °F 32.1 °F 29.8 °F 73% 29.98 in 10.0 mi WNW 8.1 mph - N/A   Mostly Cloudy
2:35 AM 37.9 °F 30.5 °F 28.4 °F 69% 29.98 in 10.0 mi NW 11.5 mph 18.4 mph N/A   Scattered Clouds
2:55 AM 36.9 °F 30.1 °F 27.0 °F 67% 29.98 in 10.0 mi NW 9.2 mph - N/A   Clear
3:15 AM 36.3 °F 30.8 °F 26.6 °F 68% 29.98 in 10.0 mi NW 6.9 mph - N/A   Mostly Cloudy
3:35 AM 36.7 °F 29.4 °F 27.0 °F 68% 29.98 in 10.0 mi NW 10.4 mph 16.1 mph N/A   Overcast
3:55 AM 36.7 °F 34.1 °F 27.7 °F 70% 29.98 in 10.0 mi WNW 3.5 mph - N/A   Overcast
4:15 AM 36.7 °F 31.2 °F 28.2 °F 71% 29.98 in 10.0 mi NW 6.9 mph - N/A   Overcast
4:35 AM 36.7 °F 30.5 °F 27.7 °F 70% 29.99 in 10.0 mi NW 8.1 mph - N/A   Overcast
4:55 AM 36.7 °F 31.2 °F 27.9 °F 70% 29.99 in 10.0 mi WNW 6.9 mph - N/A   Overcast
5:15 AM 36.0 °F 30.3 °F 27.7 °F 72% 29.99 in 10.0 mi West 6.9 mph - N/A   Overcast
5:55 AM 35.6 °F 30.7 °F 28.0 °F 74% 30.00 in 10.0 mi WNW 5.8 mph - N/A   Overcast
6:15 AM 35.6 °F 31.7 °F 28.4 °F 75% 30.01 in 10.0 mi WNW 4.6 mph - N/A   Mostly Cloudy
6:35 AM 35.6 °F 29.9 °F 28.8 °F 76% 30.02 in 10.0 mi West 6.9 mph - N/A   Clear
6:55 AM 35.6 °F 30.7 °F 29.3 °F 78% 30.03 in 10.0 mi West 5.8 mph - N/A   Clear
7:15 AM 35.6 °F 28.6 °F 29.3 °F 78% 30.04 in 10.0 mi West 9.2 mph - N/A   Clear
7:35 AM 35.6 °F 29.9 °F 29.3 °F 78% 30.05 in 10.0 mi WNW 6.9 mph - N/A   Clear
7:55 AM 35.6 °F 29.9 °F 28.6 °F 76% 30.05 in 10.0 mi WNW 6.9 mph - N/A   Clear
8:15 AM 35.8 °F 30.1 °F 28.4 °F 75% 30.05 in 10.0 mi WNW 6.9 mph 17.3 mph N/A   Clear
8:35 AM 37.4 °F 30.3 °F 29.1 °F 72% 30.06 in 10.0 mi WNW 10.4 mph 18.4 mph N/A   Clear
8:55 AM 37.9 °F 30.9 °F 28.8 °F 70% 30.06 in 10.0 mi WNW 10.4 mph 18.4 mph N/A   Clear
9:15 AM 39.0 °F 32.8 °F 28.4 °F 66% 30.06 in 10.0 mi WNW 9.2 mph - N/A   Clear
9:35 AM 40.5 °F 35.1 °F 28.0 °F 61% 30.06 in 10.0 mi NW 8.1 mph 19.6 mph N/A   Clear
9:55 AM 40.8 °F 34.1 °F 27.3 °F 59% 30.06 in 10.0 mi NW 11.5 mph 17.3 mph N/A   Clear
10:15 AM 41.7 °F 36.1 °F 27.1 °F 56% 30.06 in 10.0 mi WNW 9.2 mph 18.4 mph N/A   Clear
10:35 AM 42.3 °F 37.3 °F 26.6 °F 54% 30.07 in 10.0 mi NW 8.1 mph 18.4 mph N/A   Clear
10:55 AM 43.0 °F 38.2 °F 26.8 °F 53% 30.07 in 10.0 mi WNW 8.1 mph 17.3 mph N/A   Clear
11:15 AM 43.7 °F 39.1 °F 26.1 °F 50% 30.07 in 10.0 mi WNW 8.1 mph 17.3 mph N/A   Clear
11:35 AM 44.2 °F 38.0 °F 25.9 °F 49% 30.07 in 10.0 mi WNW 12.7 mph 21.9 mph N/A   Clear
11:55 AM 45.7 °F 40.2 °F 27.3 °F 49% 30.07 in 10.0 mi NW 11.5 mph 18.4 mph N/A   Clear
12:15 PM 48.2 °F - 29.7 °F 49% 30.07 in 10.0 mi NW 10.4 mph 23.0 mph N/A   Clear
12:35 PM 48.2 °F - 30.0 °F 49% 30.07 in 10.0 mi West 13.8 mph 24.2 mph 0.01 in   Clear
12:55 PM 49.5 °F - 31.1 °F 49% 30.06 in 10.0 mi West 13.8 mph 20.7 mph 0.01 in   Clear
1:15 PM 50.5 °F - 30.4 °F 46% 30.05 in 10.0 mi West 13.8 mph 24.2 mph N/A   Clear
1:35 PM 50.9 °F - 29.3 °F 43% 30.04 in 10.0 mi WNW 12.7 mph 26.5 mph N/A   Clear
1:55 PM 50.9 °F - 28.0 °F 41% 30.04 in 10.0 mi WNW 11.5 mph 17.3 mph N/A   Clear
2:15 PM 50.9 °F - 26.1 °F 38% 30.03 in 10.0 mi West 15.0 mph 24.2 mph N/A   Clear
2:35 PM 52.0 °F - 26.2 °F 37% 30.03 in 10.0 mi West 16.1 mph 25.3 mph N/A   Clear
2:55 PM 53.2 °F - 26.1 °F 35% 30.04 in 10.0 mi WNW 10.4 mph 20.7 mph N/A   Scattered Clouds
3:15 PM 53.6 °F - 25.5 °F 34% 30.04 in 10.0 mi WNW 8.1 mph 19.6 mph N/A   Scattered Clouds
3:35 PM 55.2 °F - 28.4 °F 36% 30.03 in 10.0 mi West 13.8 mph 23.0 mph N/A   Scattered Clouds
3:55 PM 54.9 °F - 27.0 °F 34% 30.04 in 10.0 mi WNW 10.4 mph 16.1 mph N/A   Clear
4:15 PM 54.0 °F - 28.6 °F 38% 30.04 in 10.0 mi WNW 6.9 mph - N/A   Clear
4:35 PM 55.8 °F - 30.9 °F 39% 30.04 in 10.0 mi West 9.2 mph 19.6 mph N/A   Scattered Clouds
4:55 PM 55.8 °F - 29.5 °F 37% 30.03 in 10.0 mi NW 11.5 mph 17.3 mph N/A   Scattered Clouds
5:15 PM 55.8 °F - 29.8 °F 37% 30.03 in 10.0 mi NW 9.2 mph - N/A   Clear
5:35 PM 55.8 °F - 29.7 °F 37% 30.03 in 10.0 mi NW 8.1 mph - N/A   Clear
5:55 PM 55.8 °F - 28.9 °F 36% 30.03 in 10.0 mi NW 5.8 mph - N/A   Clear
6:15 PM 55.8 °F - 28.8 °F 36% 30.02 in 10.0 mi NW 5.8 mph - N/A   Clear
6:35 PM 55.8 °F - 29.8 °F 37% 30.02 in 10.0 mi Calm Calm - N/A   Clear
6:55 PM 55.8 °F - 29.1 °F 36% 30.02 in 10.0 mi NW 3.5 mph - N/A   Scattered Clouds
7:15 PM 55.8 °F - 30.7 °F 39% 30.02 in 10.0 mi NNW 3.5 mph - N/A   Clear
7:35 PM 55.8 °F - 33.3 °F 43% 30.03 in 10.0 mi Calm Calm - N/A   Clear
7:55 PM 53.8 °F - 35.4 °F 50% 30.04 in 10.0 mi Calm Calm - N/A   Clear
8:15 PM 51.8 °F - 37.6 °F 58% 30.05 in 10.0 mi Calm Calm - N/A   Clear
8:35 PM 50.9 °F - 39.7 °F 66% 30.06 in 10.0 mi Calm Calm - N/A   Clear
8:55 PM 48.6 °F - 39.6 °F 71% 30.07 in 10.0 mi Calm Calm - N/A   Clear
9:15 PM 48.7 °F - 38.1 °F 67% 30.07 in 10.0 mi Calm Calm - N/A   Clear
9:35 PM 44.6 °F - 38.3 °F 79% 30.07 in 10.0 mi Calm Calm - N/A   Clear
9:55 PM 44.2 °F - 41.0 °F 88% 30.08 in 10.0 mi Calm Calm - N/A   Clear
10:15 PM 42.6 °F - 41.9 °F 97% 30.08 in 10.0 mi Calm Calm - N/A   Clear
10:35 PM 41.4 °F - 37.6 °F 86% 30.08 in 10.0 mi Calm Calm - N/A   Clear
10:55 PM 42.1 °F - 40.8 °F 95% 30.08 in 10.0 mi Calm Calm - N/A   Clear
11:15 PM 41.0 °F - 40.1 °F 97% 30.08 in 10.0 mi Calm Calm - N/A   Clear
11:35 PM 40.6 °F - 40.5 °F 99% 30.09 in 10.0 mi Calm Calm - N/A   Clear
11:55 PM - - - N/A% 30.08 in 10.0 mi Calm Calm - N/A   Clear